Location: Kalberh�ni
(46.4610°N, 7.2453°E)
Time: 09:18:55
(UTC+00:00)

Cosmos 1455 - Pass Details

Date: 25 October 2021
Orbit: 496 x 520 km, 82.5° (Epoch: 27 November)

Event Time Altitude Azimuth Distance (km) Brightness Sun altitude
Rises 05:12:11 0° 355° (N) 2,603 5.6 -9.3°
Reaches altitude 10° 05:14:22 10° 1° (N) 1,711 4.8 -8.9°
Maximum altitude 05:18:00 49° 78° (ENE) 653 3.2 -8.3°
Drops below altitude 10° 05:21:36 10° 154° (SSE) 1,692 5.3 -7.7°
Sets 05:23:45 0° 160° (SSE) 2,570 6.2 -7.3°
